Vertical_Velocity
1 -0 3 -1 -1 1 0 2 5 4 3 2 4 3 4 3 -2 3 5 2 1 2 0 -3 -7 -3 -2 -1 8 9 2 -2 4 1 -17 -5 -5 -5 -0 4 5 1 7
-3 1 1 5 -3 -3 1 2 4 2 5 5 4 3 3 3 2 0 -3 7 13 10 10 4 8 4 1 5 4 4 7 3 1 -8 -1 -5 -25 -1 -1 -8 3 -5 -0
-4 4 -1 -3 -2 -2 3 4 2 3 -0 6 4 3 3 1 1 1 4 3 3 5 4 5 4 6 9 10 8 1 -2 2 2 -0 -2 -1 0 -0 3 1 -2 2 -3
-1 2 -2 -6 -1 -1 3 1 0 -3 -0 1 4 4 1 1 1 1 2 4 1 0 3 7 4 5 1 7 5 7 5 0 3 0 -6 5 3 -1 4 6 -1 4 -9
0 3 -1 0 1 -0 2 5 2 -0 3 7 6 6 5 4 0 0 0 0 5 3 -2 -2 5 1 4 2 2 6 6 9 11 4 5 4 2 -4 -2 -5 -13 -8 4
-1 -0 1 0 2 -1 1 -0 1 1 -5 6 -5 -4 -9 -1 5 6 4 -3 -3 3 -1 -3 5 6 1 3 3 1 0 -1 9 6 4 9 6 5 6 4 8 2 -1
0 3 -1 -0 -1 -2 0 4 3 2 4 0 3 1 -0 4 5 3 6 -4 -6 -1 -1 6 -1 -0 2 2 4 2 0 0 4 3 4 4 2 1 -3 7 2 9 -1
-1 2 -1 -2 -1 2 1 -2 1 1 2 -1 -1 -1 1 -1 4 2 4 -3 -0 -4 -13 -0 1 2 -2 -1 -0 -1 1 2 -3 3 4 5 7 -3 10 1 -8 13 12
-2 -2 -4 -2 -2 -0 -3 -0 1 1 -1 -2 2 2 1 -0 3 2 3 1 -1 -2 -3 -4 -2 -1 1 3 -9 -5 -1 -1 -1 3 1 19 1 5 11 -10 5 -3 -3
1 -3 -2 -3 -1 -4 -1 -1 -1 1 -0 2 1 -0 3 -1 0 -0 1 -2 0 -1 -2 -0 -0 -1 -0 -6 -2 -7 -1 -10 2 -0 1 12 9 7 4 2 12 4 -2
5 1 -3 -1 -0 -2 2 1 -0 -1 4 -3 -1 -0 -3 -7 -4 -2 -2 -4 -4 -2 -4 -3 -3 -0 1 3 4 -6 0 12 -9 -4 3 5 0 0 1 0 -1 -3 -7
2 -2 -2 -2 -1 -0 -0 0 2 -1 -4 -2 -0 -2 -1 -0 -1 -2 -2 -4 -2 -4 -2 3 2 0 0 0 -2 -3 2 -2 -4 -2 -0 -4 -7 -6 1 -6 6 -4 0
2 -1 -1 -1 -1 -2 -2 -4 -5 -4 -5 -4 -2 -3 -2 -1 -1 -0 0 -0 1 -0 -0 0 1 -3 -2 1 -4 -1 2 -3 -5 -4 -4 -1 -1 -3 2 2 3 -1 4
-2 1 -4 -2 -2 -2 -1 -4 -5 -4 -1 0 -3 -6 -3 -3 -1 -1 -2 -1 2 0 1 -0 -2 -1 -3 -0 -2 -6 -6 -2 -0 1 1 -0 2 -0 -3 -0 -3 0 -2
3 -0 -1 -1 -2 -0 -0 -4 -2 -3 -2 -4 -4 -3 -5 -8 -6 -2 -3 -5 -3 -2 2 3 -0 -4 -5 -5 -2 -1 0 -0 -5 -4 -1 -1 -1 0 -2 -2 3 1 -3
-1 -1 -2 -0 -1 -2 -1 -1 -4 -2 -2 -5 -2 -2 -1 -0 0 -1 -2 -2 -2 -0 -2 -7 -5 -4 -5 -3 -4 -4 -3 -3 -5 -3 -1 -3 -6 -7 -4 0 0 -5 -5
1 0 -2 -0 -1 -2 -2 -4 -3 -3 -3 -1 -2 -1 -1 -3 -3 -2 -3 -2 -2 2 -5 -4 -3 -3 -2 -2 -2 -2 -2 -0 3 2 1 -0 2 4 -1 -4 -5 -3 -1
2 -0 -1 -2 -4 -0 -1 -2 -1 -1 1 1 2 -2 -1 -2 -0 -1 -3 0 -4 -2 -3 -4 -4 -4 -4 -4 -4 -4 -2 -3 -4 -4 -2 -2 0 0 -1 -2 -1 -4 -5
-1 -1 -0 -2 -1 -1 -2 -1 1 2 2 -0 0 -1 -2 1 2 -2 -4 -5 -5 -4 -3 -3 -2 -1 -1 -0 1 0 -2 -3 -2 -1 -1 -2 -3 -5 -2 -1 1 3 1
-1 -1 1 -1 0 -1 -2 1 0 -1 -0 -2 -1 -2 0 3 -1 -1 1 -1 -1 -1 -0 -0 -1 -1 -1 -1 -1 -1 -0 -2 -4 -4 -4 -3 -3 -2 -2 -2 -3 -6 -4
-0 1 -2 -1 -0 -1 -2 -0 -0 0 1 1 -0 -1 -1 -0 -1 -1 -1 -1 -1 -0 -0 -1 -0 1 1 -0 -1 -1 -2 -2 -1 -0 -1 -2 -3 -5 -2 -0 0 1 -0
1 0 -2 0 0 1 -1 -1 -2 -0 0 0 1 1 -1 -1 -1 -1 -1 0 1 1 1 -0 0 1 1 2 -0 -2 -2 -4 -3 -2 -2 -1 -1 0 0 -0 -2 -1 -0
2 -0 -2 -0 0 -1 1 -1 -1 -1 -2 -0 -3 -4 -4 -1 -1 -2 -2 -1 -1 -1 -1 -1 -1 1 4 3 4 1 -1 -1 -2 -2 -2 -3 -4 -4 -2 -1 -2 -2 -2
1 -0 -1 -1 -1 -1 -1 -3 -2 0 1 1 -1 -1 -2 -3 -2 -1 -1 -1 0 0 -0 0 1 0 -1 1 2 3 4 2 1 -0 -2 -3 -3 -3 -3 -2 -2 -0 -0
1 -1 -2 1 0 -1 -3 -1 0 1 -0 -1 -1 -2 -2 -2 -1 -0 -1 -2 -2 -0 2 1 0 -1 -0 1 1 2 2 4 0 0 -1 -0 -0 1 2 2 1 0 1
0 -1 1 -1 -1 -2 -1 1 0 2 2 -0 -2 -3 -3 -2 -1 -2 -2 -2 -1 -0 -1 -1 -1 -1 -1 -1 -0 0 1 2 4 -0 -2 -3 -3 -2 -3 -2 -1 -0 -0
Height
1450 1443 1436 1430 1424 1418 1412 1406 1400 1395 1389 1384 1379 1375 1372 1372 1373 1374 1378 1381 1382 1385 1389 1393 1397 1401 1401 1402 1406 1409 1410 1412 1417 1415 1419 1425 1430 1435 1438 1439 1441 1442 1445
1454 1445 1438 1432 1426 1421 1413 1408 1401 1396 1391 1386 1380 1375 1372 1371 1371 1374 1375 1376 1378 1380 1384 1386 1392 1395 1396 1399 1401 1402 1403 1406 1408 1409 1413 1417 1423 1424 1428 1433 1434 1435 1435
1457 1450 1443 1435 1431 1425 1419 1412 1405 1399 1394 1389 1383 1377 1374 1373 1372 1373 1374 1373 1373 1375 1377 1381 1382 1385 1388 1391 1394 1395 1398 1400 1403 1408 1409 1414 1418 1419 1422 1422 1422 1424 1426
1460 1454 1448 1443 1436 1431 1424 1418 1412 1407 1400 1394 1390 1385 1381 1379 1376 1375 1374 1373 1372 1372 1373 1374 1376 1379 1382 1383 1385 1389 1392 1395 1398 1402 1406 1406 1410 1411 1411 1409 1410 1412 1417
1463 1457 1452 1448 1443 1438 1431 1426 1420 1414 1408 1405 1398 1390 1387 1384 1384 1382 1379 1376 1376 1376 1376 1376 1375 1377 1378 1381 1382 1383 1387 1392 1393 1395 1398 1400 1402 1402 1398 1401 1404 1407 1408
1467 1462 1458 1454 1449 1443 1438 1432 1427 1421 1416 1411 1405 1402 1398 1394 1393 1389 1387 1384 1384 1383 1381 1382 1379 1379 1381 1379 1380 1380 1383 1384 1387 1389 1389 1391 1392 1392 1391 1393 1395 1398 1400
1470 1466 1462 1458 1454 1448 1443 1438 1432 1426 1422 1416 1412 1409 1406 1404 1403 1399 1395 1391 1390 1389 1389 1388 1386 1385 1383 1382 1381 1380 1380 1380 1380 1382 1383 1386 1384 1383 1381 1382 1385 1388 1388
1473 1469 1466 1462 1458 1454 1449 1443 1437 1432 1427 1422 1419 1416 1412 1409 1408 1405 1403 1401 1399 1396 1398 1396 1395 1392 1391 1389 1386 1384 1381 1379 1381 1381 1381 1379 1377 1379 1376 1377 1379 1379 1377
1476 1472 1470 1466 1462 1458 1453 1448 1443 1439 1434 1430 1427 1423 1419 1416 1415 1413 1411 1407 1406 1405 1406 1404 1403 1401 1399 1397 1394 1392 1390 1389 1388 1389 1383 1380 1375 1377 1370 1374 1373 1371 1374
1479 1477 1474 1471 1468 1463 1459 1454 1450 1446 1442 1438 1434 1430 1427 1424 1423 1420 1418 1415 1413 1412 1411 1410 1408 1408 1406 1403 1401 1399 1394 1394 1390 1391 1387 1383 1375 1375 1370 1376 1372 1373 1369
1483 1481 1478 1476 1472 1468 1465 1461 1457 1453 1449 1445 1441 1437 1434 1431 1430 1428 1426 1422 1421 1420 1417 1415 1413 1412 1410 1407 1403 1401 1399 1398 1393 1396 1390 1382 1379 1377 1374 1372 1374 1370 1371
1486 1484 1481 1479 1476 1473 1469 1466 1462 1458 1455 1451 1448 1444 1442 1439 1437 1435 1433 1431 1430 1427 1423 1420 1418 1416 1413 1409 1406 1406 1404 1402 1400 1399 1392 1386 1385 1384 1383 1382 1381 1377 1377
1488 1486 1484 1483 1480 1476 1472 1469 1466 1463 1459 1456 1452 1449 1448 1446 1444 1442 1439 1436 1433 1429 1428 1426 1424 1422 1419 1415 1412 1410 1406 1402 1400 1398 1396 1392 1390 1392 1390 1388 1385 1383 1381
1489 1487 1486 1485 1482 1480 1477 1473 1470 1467 1465 1461 1458 1456 1455 1452 1449 1446 1443 1441 1439 1436 1434 1431 1428 1425 1421 1418 1415 1411 1408 1405 1403 1400 1397 1396 1396 1392 1389 1386 1386 1381 1377
1491 1489 1488 1486 1484 1482 1479 1476 1474 1473 1471 1468 1466 1463 1460 1457 1457 1454 1450 1445 1443 1440 1438 1434 1429 1424 1421 1419 1416 1414 1411 1409 1405 1403 1401 1397 1395 1391 1388 1386 1383 1377 1378
1493 1491 1489 1488 1486 1485 1484 1481 1479 1478 1476 1474 1473 1470 1467 1466 1462 1459 1455 1452 1449 1444 1439 1434 1431 1428 1425 1422 1418 1416 1414 1410 1407 1404 1401 1397 1394 1393 1391 1387 1384 1382 1382
1493 1491 1491 1490 1488 1487 1485 1484 1483 1482 1480 1477 1475 1474 1471 1469 1465 1462 1458 1455 1452 1448 1442 1439 1435 1432 1429 1426 1423 1420 1416 1413 1411 1407 1403 1400 1398 1394 1390 1386 1386 1385 1383
1494 1492 1492 1490 1490 1489 1487 1487 1485 1483 1481 1478 1475 1474 1473 1471 1467 1463 1460 1458 1454 1449 1446 1443 1441 1438 1434 1430 1427 1424 1420 1416 1412 1408 1404 1400 1397 1394 1391 1389 1387 1384 1383
1494 1494 1493 1491 1491 1490 1489 1489 1487 1485 1482 1479 1477 1476 1474 1471 1468 1464 1461 1458 1455 1453 1451 1447 1445 1441 1438 1435 1431 1427 1423 1419 1415 1411 1406 1402 1399 1396 1393 1391 1388 1386 1384
1494 1494 1493 1492 1491 1490 1490 1489 1487 1485 1482 1479 1477 1475 1473 1471 1467 1464 1461 1459 1457 1454 1452 1449 1446 1443 1440 1436 1432 1428 1424 1420 1416 1412 1408 1404 1400 1397 1394 1390 1387 1384 1383
1494 1493 1493 1492 1491 1490 1489 1488 1486 1484 1481 1479 1476 1474 1472 1470 1467 1464 1461 1458 1456 1453 1450 1448 1445 1442 1439 1436 1432 1428 1425 1421 1418 1414 1410 1406 1402 1398 1395 1391 1388 1385 1382
1493 1491 1492 1492 1490 1489 1487 1486 1484 1483 1480 1478 1476 1473 1470 1468 1466 1463 1460 1457 1454 1451 1448 1445 1442 1440 1437 1434 1430 1427 1424 1421 1418 1414 1410 1405 1401 1397 1393 1389 1386 1383 1380
1491 1490 1491 1490 1489 1487 1485 1484 1482 1480 1478 1475 1472 1471 1469 1466 1463 1460 1457 1454 1451 1448 1444 1441 1438 1435 1432 1430 1427 1425 1422 1419 1416 1413 1409 1404 1400 1395 1391 1387 1383 1379 1376
1490 1489 1489 1488 1486 1485 1483 1481 1480 1478 1475 1472 1470 1467 1465 1463 1460 1457 1454 1451 1448 1444 1440 1437 1433 1430 1427 1424 1422 1420 1418 1416 1414 1411 1407 1403 1399 1394 1390 1386 1382 1378 1375
1487 1487 1486 1485 1484 1482 1481 1479 1477 1475 1472 1470 1467 1465 1463 1460 1457 1453 1450 1446 1442 1438 1435 1431 1428 1424 1420 1417 1415 1413 1412 1411 1409 1407 1404 1401 1396 1392 1388 1384 1380 1376 1373
1485 1484 1483 1482 1481 1479 1478 1477 1475 1472 1469 1467 1465 1463 1460 1457 1453 1450 1446 1441 1437 1433 1430 1426 1422 1418 1415 1412 1409 1407 1405 1405 1404 1403 1401 1398 1394 1389 1385 1381 1378 1374 1371